Theta_e
341 344 346 347 347 349 351 353 354 358 358 357 353 353 353 358 361 364 366 367 364 362 364 361 364 361 364 361 362 361 352 349 360 355 348 348 350 348 348 349 349 349 351
338 342 344 345 346 348 350 353 355 359 360 356 355 354 356 359 363 366 365 365 363 363 361 365 360 363 357 362 362 362 356 350 357 352 353 344 348 348 349 351 352 357 351
336 338 341 343 345 346 349 352 356 358 361 360 358 358 358 361 359 362 362 354 361 362 366 368 364 365 365 362 366 360 358 350 353 355 352 346 345 351 358 354 357 356 357
336 338 339 341 343 345 348 352 355 359 361 363 359 359 351 350 352 357 360 359 366 366 364 366 366 369 361 363 360 359 358 359 350 353 354 356 351 345 344 351 355 356 355
335 336 337 340 343 345 347 350 355 359 361 363 363 358 355 353 355 360 365 366 367 366 366 369 368 367 360 364 363 362 361 356 355 351 354 357 353 355 343 341 344 351 352
335 337 338 340 342 345 347 348 354 359 361 363 362 362 358 358 356 357 358 357 359 361 367 370 369 368 365 364 363 367 364 360 357 355 355 352 350 348 346 343 344 344 348
337 336 337 339 342 344 346 348 354 358 361 361 362 362 360 363 363 362 354 358 356 357 365 370 368 364 368 368 368 367 363 362 358 360 353 352 351 351 349 346 343 344 347
338 338 339 340 342 345 348 350 354 358 359 359 361 365 364 360 359 360 357 356 357 359 368 372 369 369 371 369 369 363 361 362 360 361 361 353 351 350 350 348 344 339 341
338 338 339 340 342 346 348 351 355 358 359 358 362 363 364 363 360 362 364 358 363 363 370 370 369 369 370 371 370 362 363 361 362 360 361 359 354 352 351 351 348 343 335
338 339 338 339 342 345 348 351 355 357 358 357 360 361 363 365 366 365 364 365 365 366 365 367 367 368 369 369 371 364 366 365 361 358 360 361 356 356 353 350 349 347 343
338 338 338 340 343 346 348 350 353 355 356 357 359 361 360 362 365 362 365 368 368 370 367 367 363 363 365 366 367 370 367 368 366 363 361 362 364 362 354 354 352 349 348
338 338 339 340 342 346 349 351 354 353 355 357 359 359 361 362 361 362 362 364 368 367 365 366 367 366 368 370 368 366 364 365 363 362 362 362 358 361 361 358 357 352 352
338 338 339 340 342 346 356 356 354 355 352 354 356 358 360 360 360 362 363 364 368 369 366 371 373 371 370 369 369 370 365 364 363 362 360 358 359 358 356 358 353 350 351
340 340 341 342 345 350 354 361 357 351 347 351 353 358 361 361 362 364 365 366 369 371 371 373 373 370 370 368 365 365 365 365 362 361 360 359 358 356 357 354 354 356 351
340 341 341 345 348 351 354 357 356 357 355 360 366 363 367 368 368 368 368 370 372 371 373 372 370 369 369 364 368 365 364 364 362 362 360 359 355 347 347 350 354 354 351
340 342 345 348 349 351 354 359 360 360 361 360 362 367 369 366 369 371 370 372 373 372 372 371 371 368 363 346 345 353 366 362 359 357 359 360 352 349 342 341 341 343 350
342 343 345 347 351 352 359 359 362 360 358 358 360 362 363 365 370 371 372 372 370 369 370 370 370 367 363 335 339 343 362 358 356 351 351 353 353 350 355 343 339 339 338
342 346 346 347 351 352 355 360 358 356 357 357 360 363 364 368 371 371 371 372 370 371 369 369 367 364 348 329 334 340 358 357 353 353 350 348 349 350 350 353 352 350 348
344 346 348 348 353 353 359 356 352 353 353 357 361 365 370 369 370 369 370 370 370 369 369 366 365 360 352 328 333 345 353 353 352 354 351 348 345 329 329 348 350 349 349
343 345 347 348 350 352 355 354 350 351 355 362 364 371 372 371 369 371 370 370 368 365 361 361 360 342 351 323 324 337 349 348 344 348 349 329 333 324 323 344 346 344 346
342 347 347 345 349 353 353 350 349 352 359 363 369 371 372 372 371 370 369 368 366 363 360 357 354 353 347 336 318 319 345 339 340 339 338 340 323 319 319 322 343 338 332
341 345 346 346 349 351 350 348 351 356 362 365 369 371 372 368 368 370 368 368 364 361 358 354 348 344 339 322 317 317 319 325 337 334 333 331 318 317 320 330 323 324 328
342 344 347 348 349 348 353 352 359 359 363 365 368 370 370 366 369 367 364 360 360 354 353 349 346 342 337 332 318 317 319 321 331 330 322 319 317 319 324 322 323 329 337
347 345 348 348 348 353 355 358 363 366 363 363 365 367 365 364 365 362 359 352 349 349 350 348 345 341 338 337 339 335 333 322 327 325 331 325 322 321 323 328 328 328 329
356 353 350 351 350 353 354 358 361 362 359 359 364 364 362 362 359 339 335 347 335 331 350 348 344 340 337 323 311 314 326 328 320 323 331 327 325 324 323 323 323 323 324
356 357 356 354 355 356 352 354 357 360 356 359 355 364 356 353 346 342 330 306 306 304 306 307 325 320 309 303 301 300 302 304 308 325 324 322 321 320 319 319 319 319 319
Wind_Speed
19 17 15 14 13 12 12 12 11 9 8 8 7 6 6 4 3 3 4 5 5 5 6 5 6 6 4 4 6 4 2 2 2 4 3 4 7 5 4 3 4 6 6
20 18 17 15 15 14 13 12 12 11 10 7 6 5 4 4 2 3 5 4 6 5 6 4 5 5 5 5 6 5 3 2 3 3 2 4 5 8 8 8 8 9 5
22 21 19 18 16 15 15 14 13 13 11 9 7 6 4 4 4 5 5 4 6 6 5 5 5 5 5 7 6 7 6 4 5 4 2 1 1 4 5 8 7 8 6
23 21 21 20 18 17 16 14 14 14 12 13 10 10 7 5 5 4 6 7 9 7 7 6 5 4 4 3 5 5 3 4 4 4 4 2 3 1 3 6 7 9 8
22 22 22 21 19 17 15 14 14 14 14 14 11 9 8 7 6 4 6 7 7 7 7 7 7 6 6 5 4 5 5 4 3 4 2 3 2 2 3 4 5 4 5
22 22 20 18 16 14 13 13 14 14 14 14 13 12 10 8 6 6 6 6 6 8 8 7 6 5 4 5 6 5 6 5 4 4 3 4 2 2 3 3 4 5 5
22 21 22 19 15 14 14 13 14 15 15 15 14 12 10 10 8 6 8 3 5 5 7 8 7 6 6 3 3 5 5 7 7 7 6 6 5 4 4 5 3 3 6
22 22 21 18 16 16 15 15 15 14 16 15 14 12 11 8 8 8 7 6 5 5 7 8 6 7 6 6 4 5 5 6 7 8 8 7 5 5 5 6 6 6 7
24 23 22 20 19 17 17 16 15 14 15 15 12 12 11 11 8 7 6 6 4 3 6 5 4 4 6 5 5 5 6 5 6 6 7 7 7 6 6 6 6 7 8
25 22 21 22 19 18 17 16 15 16 15 15 14 12 13 12 11 9 9 7 5 3 3 6 5 4 4 6 6 5 7 6 6 6 5 7 7 5 6 6 6 6 8
24 22 21 20 19 15 16 16 15 15 13 13 12 12 12 13 12 11 9 8 7 5 5 3 4 4 5 6 6 7 6 6 7 6 7 8 6 6 7 5 6 6 5
24 22 22 20 19 16 16 15 15 14 9 10 12 13 12 12 13 12 10 9 8 6 6 5 6 5 5 5 6 7 7 5 8 7 8 8 6 7 7 7 7 7 6
22 21 20 19 18 18 14 15 18 19 21 16 14 13 14 13 14 13 12 9 8 8 7 6 5 5 5 5 4 5 5 4 4 6 6 6 6 7 6 7 7 7 6
21 20 20 20 18 17 16 16 18 14 7 14 17 15 15 14 13 11 10 10 8 9 7 6 5 5 4 4 4 2 2 2 3 3 4 5 6 7 6 7 7 6 6
20 21 21 19 18 18 17 17 17 13 9 12 13 14 13 12 12 11 10 9 8 8 6 6 6 5 2 2 2 2 2 1 3 2 3 4 3 5 5 6 5 6 8
20 20 19 18 19 20 19 18 17 14 10 12 14 12 10 11 12 11 11 10 9 7 6 6 6 4 1 9 4 3 1 1 3 4 4 5 7 9 9 9 9 9 8
21 20 21 20 18 20 18 19 16 16 14 14 14 13 11 11 13 13 12 11 10 9 9 7 5 5 7 10 4 3 3 4 4 4 6 7 0 3 5 10 10 11 11
19 18 18 18 18 19 19 16 16 16 14 14 14 13 13 13 13 13 12 12 10 9 8 7 7 5 6 7 5 4 3 4 3 2 3 4 5 10 8 7 6 6 6
17 16 17 17 16 17 17 17 17 15 15 15 14 14 15 15 14 14 13 11 10 9 7 7 7 6 7 7 5 4 1 4 4 5 7 6 5 9 10 7 6 5 5
12 14 16 16 17 18 19 18 16 15 16 15 15 15 15 15 15 14 13 11 10 10 9 8 7 6 8 9 8 9 3 3 3 3 8 12 9 8 8 6 6 5 5
10 13 14 14 13 15 15 14 13 12 10 11 13 14 15 14 14 13 11 11 10 10 10 9 7 7 6 8 12 12 3 5 5 5 4 6 10 9 6 4 4 4 5
10 12 12 12 15 16 16 15 15 12 9 9 12 14 15 13 13 14 12 12 11 10 9 9 7 7 8 7 10 9 9 7 6 5 5 6 7 5 8 7 9 5 8
8 10 12 13 15 19 18 20 15 18 20 11 12 12 13 13 13 13 13 11 10 9 9 8 7 7 6 6 7 7 5 5 4 6 3 6 6 8 8 7 7 7 7
8 9 12 14 16 17 16 15 16 13 16 19 15 13 11 13 13 11 11 10 9 8 7 7 7 7 6 4 2 2 2 7 6 9 2 2 5 6 7 6 8 7 6
7 8 9 10 13 15 16 17 16 16 13 14 13 12 10 10 11 11 6 3 10 6 6 6 6 6 7 7 6 7 5 4 3 5 3 5 5 6 7 6 7 7 7
7 7 9 9 11 12 13 12 12 12 16 12 11 10 11 10 9 9 10 23 14 17 19 20 8 10 15 11 5 3 2 2 4 2 4 5 5 5 6 6 7 7 9
Wind_Direction
193 192 195 193 194 192 187 191 196 186 198 197 200 197 211 203 203 204 149 203 202 209 210 196 179 196 214 230 183 166 206 57 167 143 121 170 180 192 199 204 248 252 229
192 193 192 196 199 197 199 197 203 192 199 198 203 210 205 210 252 177 185 217 208 212 207 225 196 166 197 193 194 191 150 170 181 152 145 163 181 202 208 214 218 237 213
194 188 193 199 199 202 203 202 200 194 198 198 181 183 186 217 214 184 174 207 226 219 225 209 255 187 213 170 176 186 197 142 169 213 246 114 61 158 203 203 210 215 214
193 195 191 198 201 205 205 204 200 198 194 188 186 194 201 193 198 204 183 189 212 218 214 216 210 237 252 161 181 182 190 254 156 184 200 295 62 82 145 181 201 205 215
193 199 198 190 200 198 202 199 196 196 194 188 193 187 211 187 191 182 164 210 184 208 215 212 208 213 229 180 218 167 212 189 260 213 190 11 241 199 303 143 173 207 210
194 194 198 191 199 197 197 196 185 193 194 191 197 198 192 219 205 191 185 189 195 191 206 207 207 202 216 197 198 194 196 247 254 279 263 245 211 263 244 246 158 213 174
197 193 193 192 192 192 193 190 183 188 189 193 195 197 205 216 223 215 227 187 206 193 182 200 195 193 206 205 200 192 208 215 232 227 258 247 257 275 281 279 256 201 214
196 196 192 189 188 186 189 186 179 184 184 193 198 194 196 212 225 212 270 245 208 186 171 195 195 196 184 187 192 206 232 223 224 238 251 280 260 253 252 265 281 251 222
194 193 187 190 186 183 185 182 177 182 183 189 195 195 198 217 216 230 224 228 233 190 192 206 207 195 187 188 190 226 213 235 229 238 240 254 271 261 261 261 266 279 289
190 187 186 190 186 182 181 183 179 183 182 186 190 195 200 206 212 213 227 248 274 260 178 215 222 240 207 204 209 225 206 226 240 242 240 254 272 267 254 263 264 271 289
185 183 187 189 180 176 174 179 178 175 183 199 194 196 202 205 214 210 214 229 234 226 243 244 252 221 210 212 229 255 269 231 240 255 250 251 253 272 274 251 260 263 256
182 184 186 185 177 173 176 175 175 171 175 201 193 202 198 209 210 213 217 221 226 217 211 210 227 226 220 203 225 247 281 276 271 262 260 257 252 247 250 260 265 280 279
178 188 183 183 179 176 174 171 173 177 198 165 190 200 202 201 216 203 209 223 219 227 221 230 224 212 211 228 248 281 293 266 309 282 265 273 272 257 269 261 271 237 239
180 188 184 181 181 173 176 177 179 193 211 176 185 193 200 203 211 209 198 205 214 225 216 236 225 224 239 262 266 274 305 305 304 288 279 277 271 267 261 260 262 265 261
182 186 190 181 179 172 179 182 188 191 175 180 182 185 191 197 205 190 183 192 197 213 209 213 225 230 215 236 143 114 69 7 314 261 253 234 332 350 312 290 258 249 241
188 185 192 185 182 178 182 184 192 193 177 175 179 175 181 187 195 170 174 176 186 199 186 194 205 195 153 67 47 331 15 335 297 296 283 280 193 216 227 249 270 301 268
186 185 191 191 185 183 181 186 182 182 183 185 186 181 180 191 183 163 166 172 176 174 173 174 184 151 105 39 72 177 254 313 355 308 300 297 76 248 269 209 218 238 247
190 190 193 191 189 183 179 170 170 178 182 181 180 179 186 181 167 159 161 166 167 172 168 156 155 137 75 43 74 172 61 65 56 267 320 324 325 9 330 297 277 256 234
186 194 196 193 184 179 166 160 169 170 176 177 173 176 179 164 159 158 158 164 167 165 154 138 146 130 70 43 50 298 104 69 73 59 54 44 31 5 344 293 289 301 296
180 188 190 191 186 179 166 167 165 165 170 167 175 175 165 158 157 155 157 163 166 152 147 136 112 98 110 44 21 5 349 34 356 139 130 73 20 339 337 300 300 290 296
169 179 181 186 181 174 159 162 158 155 165 171 168 167 163 148 148 152 154 155 159 139 129 133 128 116 95 65 39 17 35 353 325 339 358 43 10 336 339 301 348 341 313
159 178 172 174 168 155 152 147 146 137 152 165 173 173 154 152 152 148 148 148 141 145 146 148 154 120 107 64 66 47 36 354 330 340 2 35 356 348 35 16 347 302 271
154 168 169 173 168 159 162 152 152 154 139 164 177 178 154 151 149 150 145 148 157 156 170 171 165 146 141 128 131 109 45 21 333 17 31 283 274 276 176 75 7 355 11
155 169 173 180 174 161 169 160 154 159 138 145 164 171 163 154 151 152 157 156 172 180 183 180 169 157 151 130 104 100 166 202 232 172 132 23 293 62 9 352 49 16 16
168 176 183 180 176 173 174 166 161 151 151 145 145 167 147 174 139 70 44 173 53 1 195 170 165 172 148 85 49 11 22 8 63 290 58 40 32 35 30 37 32 21 8
170 171 175 181 179 171 184 182 178 167 152 169 140 155 155 151 140 125 92 48 46 55 49 41 74 71 97 124 123 143 126 1 300 93 51 47 32 31 28 26 21 21 16